Temperature
-2 -2 -2 -2 -2 -2 -2 -2 -2 -2 -2 -3 -3 -3 -3 -3 -3 -3 -3 -3 -4 -4 -4 -4 -4 -4 -4 -4 -4 -4 -4 -5 -5 -4 -4 -4 -4 -4 -3 -3 -3 -3 -3
-2 -2 -2 -2 -2 -2 -3 -3 -3 -3 -3 -3 -3 -3 -3 -3 -3 -4 -4 -4 -4 -4 -4 -4 -4 -5 -5 -5 -5 -5 -5 -5 -5 -5 -5 -5 -4 -4 -4 -4 -4 -3 -3
-3 -3 -3 -3 -3 -3 -3 -3 -3 -3 -4 -4 -4 -4 -4 -4 -4 -4 -4 -4 -4 -5 -5 -5 -5 -5 -5 -5 -5 -5 -5 -5 -5 -6 -5 -5 -5 -5 -5 -5 -4 -4 -4
-3 -3 -3 -4 -4 -4 -4 -4 -4 -4 -4 -4 -4 -4 -4 -4 -4 -5 -5 -5 -5 -5 -6 -6 -6 -6 -6 -6 -6 -6 -6 -6 -6 -6 -6 -6 -5 -5 -5 -5 -5 -5 -4
-4 -4 -4 -4 -4 -4 -4 -5 -5 -5 -5 -5 -5 -5 -5 -5 -5 -5 -6 -6 -6 -6 -6 -6 -6 -6 -6 -6 -6 -6 -6 -6 -6 -6 -6 -6 -6 -6 -6 -6 -5 -5 -5
-4 -4 -5 -5 -5 -5 -5 -5 -5 -5 -5 -6 -6 -6 -6 -6 -6 -6 -6 -6 -6 -6 -6 -7 -7 -7 -7 -7 -7 -7 -7 -7 -7 -7 -7 -6 -6 -6 -6 -6 -6 -6 -6
-5 -5 -5 -5 -5 -6 -6 -6 -6 -6 -6 -6 -6 -6 -6 -6 -6 -7 -7 -7 -7 -7 -7 -7 -7 -7 -7 -7 -7 -7 -7 -7 -7 -7 -7 -7 -7 -7 -7 -7 -7 -7 -6
-6 -6 -6 -6 -6 -6 -6 -7 -7 -7 -7 -7 -7 -7 -7 -7 -7 -7 -7 -8 -8 -7 -7 -7 -7 -7 -7 -7 -7 -7 -7 -7 -7 -7 -7 -7 -7 -7 -7 -7 -7 -7 -7
-6 -7 -7 -7 -7 -7 -7 -7 -7 -7 -7 -7 -8 -8 -7 -7 -7 -7 -8 -8 -8 -8 -8 -8 -8 -8 -8 -8 -8 -8 -8 -8 -8 -8 -7 -8 -7 -7 -8 -8 -8 -8 -8
-7 -7 -7 -7 -7 -7 -8 -8 -8 -8 -8 -8 -8 -8 -8 -8 -8 -8 -8 -8 -8 -8 -8 -8 -8 -8 -8 -8 -8 -8 -8 -8 -8 -8 -8 -8 -8 -8 -8 -8 -8 -8 -8
-8 -8 -8 -8 -8 -8 -8 -8 -8 -9 -9 -9 -8 -8 -8 -8 -8 -8 -8 -9 -9 -9 -8 -8 -8 -8 -8 -8 -8 -8 -8 -8 -8 -8 -8 -8 -8 -8 -8 -8 -9 -9 -9
-8 -8 -8 -8 -8 -8 -9 -9 -9 -9 -9 -9 -9 -9 -9 -9 -9 -9 -9 -9 -9 -9 -9 -9 -9 -9 -9 -8 -9 -9 -9 -9 -9 -9 -9 -9 -9 -9 -9 -9 -9 -9 -9
-9 -8 -8 -9 -9 -9 -9 -9 -9 -9 -9 -9 -9 -9 -9 -9 -9 -9 -9 -9 -9 -9 -9 -9 -9 -9 -9 -9 -9 -9 -9 -9 -10 -10 -10 -10 -9 -10 -9 -9 -9 -9 -9
-9 -9 -9 -9 -9 -9 -9 -9 -10 -9 -10 -10 -10 -10 -10 -10 -9 -9 -9 -9 -9 -9 -9 -9 -9 -9 -9 -9 -10 -10 -10 -10 -10 -10 -10 -10 -10 -10 -10 -10 -10 -10 -10
-10 -10 -10 -10 -10 -10 -10 -10 -10 -10 -10 -10 -10 -10 -10 -10 -10 -10 -10 -10 -10 -10 -10 -10 -10 -10 -10 -10 -10 -10 -10 -11 -11 -11 -11 -11 -11 -11 -11 -11 -11 -11 -11
-10 -10 -10 -10 -10 -10 -10 -10 -10 -10 -10 -10 -10 -10 -10 -10 -10 -10 -10 -10 -10 -10 -10 -10 -10 -11 -11 -11 -11 -11 -11 -11 -11 -11 -11 -11 -11 -11 -11 -11 -11 -11 -11
-11 -11 -11 -11 -11 -11 -11 -11 -11 -10 -10 -10 -10 -10 -10 -10 -10 -11 -11 -11 -11 -11 -11 -11 -11 -11 -11 -11 -11 -11 -11 -11 -12 -12 -12 -12 -12 -12 -12 -12 -12 -12 -12
-11 -11 -11 -11 -11 -11 -11 -11 -11 -11 -11 -11 -11 -11 -11 -11 -11 -11 -11 -11 -11 -11 -11 -12 -12 -12 -12 -12 -12 -12 -12 -12 -12 -12 -12 -12 -12 -12 -12 -12 -12 -12 -12
-11 -11 -11 -11 -11 -11 -11 -11 -11 -11 -11 -11 -11 -11 -11 -11 -11 -11 -12 -12 -12 -12 -12 -12 -12 -12 -12 -12 -12 -12 -12 -12 -12 -12 -12 -12 -12 -12 -13 -13 -13 -13 -13
-11 -11 -12 -12 -12 -12 -11 -12 -12 -12 -12 -12 -12 -12 -12 -12 -12 -12 -12 -12 -12 -12 -12 -12 -12 -12 -12 -12 -12 -12 -12 -12 -13 -13 -12 -13 -13 -13 -13 -13 -13 -13 -13
-12 -12 -12 -12 -12 -12 -12 -12 -12 -12 -12 -12 -12 -12 -12 -12 -12 -12 -12 -12 -12 -12 -12 -13 -13 -13 -13 -13 -13 -13 -13 -13 -13 -13 -13 -13 -13 -13 -13 -13 -13 -13 -13
-12 -12 -12 -12 -12 -12 -12 -12 -12 -12 -12 -12 -12 -12 -12 -12 -12 -13 -13 -13 -13 -13 -13 -13 -13 -13 -13 -13 -13 -13 -13 -13 -13 -13 -13 -13 -13 -13 -13 -13 -13 -13 -13
-12 -13 -13 -13 -12 -12 -12 -12 -12 -12 -12 -12 -12 -12 -13 -13 -13 -13 -13 -13 -13 -13 -13 -13 -13 -13 -13 -13 -13 -13 -13 -13 -13 -13 -13 -13 -13 -13 -13 -14 -14 -14 -14
-13 -13 -13 -13 -13 -13 -13 -13 -13 -13 -13 -13 -13 -13 -13 -13 -13 -13 -13 -13 -13 -13 -13 -13 -13 -13 -13 -13 -13 -13 -13 -13 -13 -13 -13 -14 -14 -14 -14 -14 -14 -14 -14
-13 -13 -13 -13 -13 -13 -13 -13 -13 -13 -13 -13 -13 -13 -13 -13 -13 -13 -13 -13 -13 -13 -13 -13 -13 -13 -13 -13 -13 -13 -13 -13 -13 -13 -13 -14 -14 -14 -14 -14 -14 -14 -14
-14 -14 -14 -14 -14 -14 -14 -14 -14 -14 -14 -13 -13 -13 -13 -14 -14 -14 -14 -14 -14 -14 -14 -14 -14 -14 -14 -14 -14 -14 -13 -13 -13 -13 -14 -14 -14 -14 -14 -14 -14 -14 -14
Wind_Speed
5 5 5 5 5 5 5 5 5 5 5 5 5 5 5 5 5 5 5 6 6 6 5 6 6 6 5 5 6 6 6 6 8 8 8 8 9 9 9 10 10 10 10
4 4 4 4 4 4 4 4 4 5 5 5 5 5 5 5 5 6 6 6 6 6 7 7 7 6 7 6 6 6 6 6 7 9 8 8 9 9 9 9 9 9 10
4 4 4 4 4 3 3 4 4 4 5 5 5 5 5 5 6 6 7 7 7 7 7 8 8 7 7 6 6 6 6 6 6 7 8 8 8 8 9 9 9 9 10
3 3 3 3 3 3 3 4 4 4 5 5 5 6 6 6 6 6 7 7 7 7 8 8 8 8 8 8 7 7 6 6 7 7 7 8 7 8 7 7 7 7 8
3 3 3 3 3 3 3 3 4 4 5 5 5 6 6 6 6 7 7 7 8 8 8 8 8 9 10 9 7 7 6 6 6 7 7 7 7 7 7 6 8 8 8
3 3 3 3 3 3 3 3 4 4 5 5 6 6 6 6 8 10 9 7 7 8 8 8 8 8 9 10 11 10 10 9 8 8 8 8 9 8 7 7 7 8 8
2 2 2 2 3 3 3 4 4 5 5 5 6 6 7 8 10 10 10 7 7 7 8 7 7 7 9 8 9 10 11 12 12 10 10 10 10 9 9 9 9 10 10
2 2 3 3 3 3 3 4 4 4 5 5 6 6 7 7 9 10 10 8 7 8 8 8 8 9 8 9 9 9 9 9 10 9 9 10 10 9 9 10 10 10 10
3 3 3 3 3 3 4 4 4 5 5 5 6 6 7 7 9 10 9 6 7 8 8 8 9 9 11 12 9 9 9 8 9 11 12 12 13 13 11 8 8 8 9
3 3 3 3 4 4 4 4 4 4 5 5 5 6 6 7 9 10 9 5 6 7 7 8 10 10 11 11 9 8 9 8 8 8 10 10 10 10 11 9 8 8 7
3 3 3 3 4 4 4 4 4 4 4 5 5 5 6 7 8 9 9 5 6 6 6 6 7 10 11 11 10 8 9 9 8 8 7 7 7 6 6 7 8 8 8
2 3 3 3 3 3 3 4 4 4 4 4 4 5 4 5 6 7 8 8 8 6 6 6 6 10 11 11 8 8 10 9 6 6 6 6 6 6 6 7 8 8 9
2 3 3 3 3 3 4 4 4 4 4 4 4 4 4 4 5 7 8 9 9 7 6 8 9 10 9 7 7 9 8 6 6 6 6 6 6 6 6 6 7 7 8
3 3 3 3 3 3 3 3 4 4 4 4 4 4 4 4 4 4 5 5 6 6 6 7 8 8 6 6 6 5 5 5 5 6 6 6 6 5 5 5 6 6 6
3 3 3 3 3 3 3 4 5 5 6 5 4 4 4 5 6 8 6 5 5 5 5 4 4 4 4 4 4 5 5 5 5 5 5 5 5 5 5 5 5 6 6
3 3 3 3 3 3 3 3 5 6 8 8 8 7 6 7 9 9 8 8 7 6 4 4 4 4 5 5 5 5 5 5 5 5 5 5 5 5 5 5 5 6 6
4 4 3 3 3 3 3 3 4 4 5 6 7 7 7 8 8 7 7 7 6 5 4 4 4 5 5 5 5 5 5 5 5 5 5 5 5 5 5 6 6 6 6
4 4 4 4 4 4 4 4 3 3 4 4 5 6 6 7 7 6 6 5 4 4 3 4 5 5 5 5 5 5 5 5 5 5 5 5 5 5 6 6 6 7 7
4 3 4 4 4 4 4 4 4 4 4 4 4 4 5 6 6 6 5 4 4 4 4 5 5 5 5 5 5 5 6 6 6 6 6 6 6 6 6 6 6 8 8
4 5 4 4 3 3 3 3 4 4 4 4 4 4 3 4 4 4 4 4 4 5 5 5 5 5 5 5 5 5 5 5 6 6 6 6 6 6 7 8 7 7 7
3 4 5 4 4 4 4 4 4 4 4 4 4 5 6 4 5 5 5 5 5 5 5 5 5 5 5 5 5 6 6 6 6 6 6 6 6 6 7 7 7 7 7
3 3 4 4 4 4 4 4 4 4 4 5 4 5 6 4 4 4 5 5 5 5 5 5 5 6 6 6 6 6 6 6 6 6 6 6 6 7 7 7 7 7 7
3 4 4 4 4 5 4 4 4 4 4 5 4 4 4 4 4 5 5 5 5 5 5 6 6 6 6 7 7 7 7 7 7 7 7 7 7 7 7 7 9 9 9
3 4 4 3 3 4 4 4 4 4 5 5 4 4 5 5 5 6 6 5 5 6 6 6 7 8 9 8 8 8 9 9 9 8 9 9 8 8 7 8 8 9 9
3 3 3 3 3 4 4 4 4 4 5 5 5 5 5 5 5 6 6 5 6 6 7 7 7 8 9 11 10 10 12 13 12 10 9 8 9 9 8 9 8 9 9
3 3 3 3 3 4 4 4 4 5 5 5 5 5 5 5 6 6 6 6 6 6 7 7 8 10 11 10 12 13 14 14 14 14 10 8 8 8 8 8 9 9 9
Wind_Direction
187 189 191 193 197 204 211 219 225 227 226 229 234 241 243 242 244 247 252 255 250 252 254 255 259 262 265 263 259 256 256 256 264 279 285 288 290 293 297 297 297 296 295
185 186 186 187 194 206 217 226 230 233 235 237 239 241 245 245 245 246 250 251 250 251 253 254 256 258 260 261 259 259 260 259 260 273 282 286 289 291 293 293 295 294 294
182 185 187 193 199 214 228 234 237 239 241 243 243 244 247 249 250 250 250 250 250 252 252 252 254 255 258 261 261 262 263 265 264 267 278 283 286 288 292 292 292 291 292
182 189 196 207 215 222 231 238 240 242 243 247 248 250 251 252 253 254 252 250 252 256 257 255 253 254 256 260 263 263 265 268 268 267 272 278 282 289 288 292 295 295 295
191 201 210 220 226 228 233 239 244 245 248 251 252 254 254 254 251 253 253 255 259 261 260 261 259 259 262 263 263 264 266 267 269 269 272 276 279 286 286 290 290 295 293
200 213 218 223 223 230 238 243 246 248 251 252 252 253 255 254 256 259 261 261 261 260 263 263 265 264 265 267 271 272 269 265 266 269 271 273 278 281 284 282 284 288 288
213 217 217 224 228 235 245 248 250 254 256 255 257 256 258 260 261 264 265 263 260 259 260 261 263 264 269 267 271 272 270 269 266 268 270 274 278 278 280 280 280 282 281
220 227 227 231 239 243 245 248 254 257 255 258 259 260 264 266 267 267 268 262 263 260 259 259 262 265 263 269 270 270 268 268 268 268 270 273 275 277 276 278 279 279 279
229 239 242 237 241 246 247 251 258 260 259 258 260 261 266 271 268 267 271 262 261 262 260 259 259 263 265 268 270 270 272 273 274 273 274 276 275 276 277 276 274 272 275
246 253 254 247 241 245 250 255 259 258 260 263 265 265 265 269 269 269 270 260 261 263 262 260 260 261 266 268 265 269 271 277 280 280 277 277 276 274 273 267 268 269 274
261 258 256 256 250 247 248 250 251 257 262 263 264 267 266 267 271 270 268 261 259 264 266 265 264 265 269 272 273 267 269 280 282 278 278 279 278 275 273 273 272 265 265
264 261 263 263 262 249 243 249 249 249 255 261 265 272 270 271 274 274 271 270 270 267 269 271 271 275 278 278 275 274 280 283 280 279 276 276 278 279 282 283 281 275 269
259 263 269 270 263 252 244 244 247 245 248 255 261 271 279 282 279 279 280 279 275 271 270 271 276 281 285 281 277 282 284 277 273 274 277 280 282 283 284 286 285 282 277
253 262 265 266 265 260 252 244 244 244 248 252 258 267 277 281 282 282 278 279 279 275 274 274 276 279 277 277 282 283 276 271 270 271 277 283 286 283 280 282 284 283 281
253 263 266 263 262 262 260 254 252 251 251 257 259 261 267 276 280 287 288 284 283 279 283 278 272 272 271 275 278 280 278 274 271 270 273 279 282 282 283 285 282 281 276
249 256 260 262 263 265 267 275 270 268 269 270 269 271 272 275 285 287 289 290 292 290 281 265 266 267 269 273 276 278 276 273 274 273 273 274 277 281 285 286 282 276 275
246 253 254 254 256 260 263 266 280 284 279 275 275 278 280 287 289 289 293 293 286 283 274 268 268 269 271 273 272 272 274 276 275 271 272 274 275 276 279 280 279 278 276
254 254 255 253 254 257 260 260 263 270 281 285 282 279 283 289 291 289 288 289 281 276 271 272 273 274 274 274 274 273 274 275 272 269 270 272 273 274 274 273 274 276 278
255 254 255 257 258 261 261 257 258 261 267 277 287 285 286 291 289 286 283 272 272 273 274 274 273 274 274 274 275 273 273 273 272 270 269 270 271 270 270 270 271 274 276
254 257 260 259 259 260 257 254 255 259 263 266 270 278 287 289 283 284 281 272 267 269 272 273 273 271 271 271 272 271 271 272 274 272 270 270 270 268 267 267 268 270 272
256 252 259 263 257 255 255 256 256 257 261 267 270 272 278 276 274 276 275 272 268 269 271 273 273 272 270 269 269 266 267 269 272 272 272 271 270 268 267 267 267 268 271
256 254 255 256 254 252 255 255 255 256 259 265 272 277 282 281 277 279 277 276 275 273 271 271 271 270 267 266 265 265 264 266 268 268 268 267 266 267 267 266 267 269 270
255 258 258 254 253 254 258 254 253 254 259 264 267 271 275 275 276 277 278 281 282 279 276 271 270 269 268 267 263 260 260 263 264 264 264 266 266 266 266 266 267 269 268
262 259 257 257 256 252 252 255 256 258 260 264 267 268 271 273 275 277 278 279 280 279 277 272 269 269 273 275 272 265 261 263 264 258 258 258 261 264 265 266 268 269 269
267 261 258 257 256 256 257 260 261 262 264 265 267 269 272 274 274 276 277 277 279 278 279 279 273 273 274 275 275 272 270 272 271 266 259 258 260 261 265 267 269 273 273
273 268 265 262 260 260 261 263 265 268 268 269 269 269 271 273 274 276 278 278 280 280 281 279 275 276 278 277 275 276 275 275 275 272 265 260 260 262 264 265 268 268 272
Height
1474 1476 1478 1479 1480 1481 1482 1483 1484 1485 1485 1485 1485 1485 1485 1485 1485 1485 1485 1484 1484 1484 1483 1483 1483 1482 1482 1481 1481 1480 1479 1479 1476 1475 1475 1474 1473 1472 1471 1470 1468 1467 1464
1471 1472 1474 1475 1476 1477 1478 1479 1479 1480 1480 1481 1481 1481 1481 1480 1480 1480 1480 1480 1479 1479 1479 1478 1478 1478 1477 1477 1476 1475 1474 1474 1472 1470 1470 1469 1468 1468 1466 1465 1463 1462 1460
1467 1469 1470 1471 1472 1473 1474 1474 1475 1476 1476 1476 1476 1476 1475 1475 1475 1475 1475 1475 1474 1474 1474 1473 1473 1473 1472 1472 1471 1470 1469 1469 1468 1467 1465 1465 1464 1463 1462 1460 1459 1457 1456
1464 1465 1466 1467 1468 1469 1470 1470 1471 1471 1471 1471 1471 1471 1471 1470 1470 1470 1470 1470 1469 1469 1469 1468 1468 1467 1467 1467 1466 1465 1465 1464 1464 1463 1461 1460 1459 1458 1457 1455 1453 1452 1451
1461 1461 1462 1463 1464 1464 1465 1466 1466 1466 1466 1466 1466 1466 1466 1465 1465 1465 1465 1465 1464 1464 1464 1463 1463 1463 1462 1462 1462 1461 1461 1460 1459 1458 1457 1456 1455 1454 1453 1451 1449 1447 1446
1457 1458 1459 1459 1460 1460 1461 1461 1462 1462 1462 1462 1461 1461 1461 1460 1460 1460 1460 1460 1459 1459 1459 1458 1458 1458 1457 1457 1457 1456 1456 1455 1454 1454 1453 1452 1450 1450 1448 1447 1445 1443 1440
1454 1455 1455 1456 1456 1456 1457 1457 1457 1457 1457 1457 1456 1456 1456 1456 1456 1456 1456 1455 1455 1454 1454 1454 1453 1453 1453 1452 1452 1451 1451 1450 1450 1450 1448 1446 1446 1445 1444 1442 1440 1438 1436
1451 1451 1452 1452 1452 1453 1453 1453 1453 1453 1453 1452 1452 1451 1451 1451 1451 1451 1451 1451 1450 1450 1449 1449 1449 1448 1448 1448 1447 1446 1445 1444 1444 1443 1442 1441 1440 1439 1439 1437 1435 1432 1430
1448 1448 1448 1448 1448 1449 1449 1449 1449 1448 1448 1447 1447 1446 1446 1446 1446 1446 1446 1446 1445 1445 1445 1444 1444 1443 1443 1443 1442 1441 1440 1439 1438 1437 1436 1435 1434 1433 1433 1431 1429 1427 1423
1444 1444 1445 1445 1445 1445 1445 1445 1445 1444 1444 1443 1443 1442 1442 1441 1442 1442 1442 1441 1441 1440 1440 1440 1439 1439 1438 1438 1437 1436 1435 1434 1433 1431 1430 1429 1428 1427 1426 1425 1423 1421 1418
1441 1441 1441 1441 1442 1441 1441 1441 1441 1440 1440 1439 1439 1438 1438 1438 1437 1437 1437 1437 1437 1436 1435 1435 1434 1434 1433 1433 1432 1431 1430 1429 1428 1426 1424 1423 1422 1420 1419 1418 1416 1415 1413
1438 1438 1438 1438 1438 1438 1438 1437 1437 1437 1436 1435 1435 1434 1434 1434 1433 1433 1433 1433 1433 1432 1431 1430 1429 1429 1428 1428 1427 1426 1425 1424 1422 1421 1419 1417 1416 1414 1413 1411 1410 1408 1407
1434 1434 1434 1435 1435 1434 1434 1434 1433 1433 1433 1432 1431 1431 1430 1430 1430 1429 1429 1429 1428 1428 1426 1426 1425 1424 1423 1422 1421 1420 1419 1418 1417 1415 1414 1412 1411 1409 1407 1405 1403 1402 1400
1430 1430 1431 1431 1431 1431 1431 1430 1430 1429 1429 1428 1428 1427 1427 1426 1426 1425 1425 1424 1424 1423 1422 1421 1420 1419 1418 1417 1416 1415 1414 1413 1412 1410 1409 1407 1406 1404 1402 1400 1398 1397 1395
1427 1427 1427 1427 1427 1427 1427 1427 1426 1426 1426 1425 1424 1424 1423 1422 1422 1422 1421 1421 1420 1419 1418 1416 1415 1414 1413 1412 1411 1410 1409 1408 1407 1405 1404 1402 1401 1399 1397 1396 1394 1392 1391
1423 1423 1424 1424 1424 1423 1423 1423 1423 1423 1422 1421 1421 1420 1419 1419 1418 1418 1417 1416 1415 1414 1414 1412 1411 1410 1409 1408 1407 1406 1404 1403 1402 1401 1399 1398 1396 1395 1393 1392 1390 1388 1386
1420 1420 1420 1420 1420 1420 1419 1419 1418 1418 1418 1417 1417 1416 1415 1415 1414 1413 1413 1412 1411 1410 1409 1407 1407 1406 1405 1404 1403 1401 1400 1399 1397 1396 1395 1393 1392 1390 1389 1388 1386 1384 1382
1417 1417 1417 1417 1416 1416 1416 1415 1415 1414 1413 1412 1412 1412 1411 1410 1410 1409 1408 1408 1407 1406 1405 1403 1402 1401 1400 1399 1398 1397 1395 1394 1393 1391 1390 1389 1387 1386 1384 1383 1381 1379 1377
1413 1413 1413 1413 1413 1413 1412 1412 1411 1410 1410 1409 1408 1408 1407 1406 1405 1405 1404 1403 1402 1401 1400 1399 1398 1397 1395 1394 1393 1392 1390 1389 1388 1387 1385 1384 1383 1381 1379 1378 1376 1374 1373
1410 1410 1410 1410 1409 1409 1408 1408 1407 1407 1406 1405 1404 1403 1403 1402 1401 1401 1400 1399 1398 1397 1396 1394 1393 1392 1391 1389 1388 1387 1385 1384 1383 1382 1380 1379 1378 1376 1374 1372 1371 1369 1367
1406 1406 1406 1406 1406 1405 1405 1404 1404 1403 1402 1401 1401 1400 1399 1398 1397 1396 1395 1394 1393 1392 1391 1390 1388 1387 1386 1384 1383 1382 1380 1379 1378 1377 1375 1374 1373 1371 1369 1368 1366 1364 1362
1403 1403 1403 1402 1402 1402 1401 1401 1400 1399 1399 1398 1397 1396 1395 1394 1393 1392 1391 1390 1389 1388 1387 1385 1384 1382 1381 1380 1378 1377 1376 1374 1373 1372 1371 1369 1368 1366 1364 1363 1361 1359 1357
1400 1399 1399 1399 1398 1398 1398 1397 1396 1396 1395 1394 1393 1392 1391 1390 1389 1388 1387 1386 1384 1383 1382 1380 1379 1377 1376 1375 1374 1372 1371 1370 1369 1368 1366 1364 1362 1361 1359 1357 1356 1354 1352
1396 1396 1396 1395 1395 1394 1394 1393 1393 1392 1391 1390 1389 1388 1387 1386 1385 1384 1382 1381 1380 1378 1377 1376 1374 1373 1371 1370 1369 1367 1366 1365 1364 1362 1361 1359 1357 1355 1354 1352 1350 1348 1346
1393 1393 1392 1392 1391 1391 1390 1389 1389 1388 1387 1386 1385 1384 1383 1382 1381 1379 1378 1377 1375 1374 1372 1371 1369 1368 1367 1365 1364 1362 1361 1360 1359 1357 1356 1354 1352 1350 1349 1347 1345 1343 1341
1390 1390 1389 1388 1388 1387 1386 1386 1385 1384 1383 1382 1381 1380 1379 1378 1377 1375 1374 1372 1371 1369 1368 1366 1365 1363 1362 1360 1359 1357 1356 1354 1353 1352 1351 1349 1347 1345 1344 1342 1340 1339 1337